Year,Month,Day,Hour,Minute,Value (Times are PST for temperature in C)
2021,06,29,00,00,19.80
2021,06,29,00,01,19.80
2021,06,29,00,02,19.80
2021,06,29,00,03,19.80
2021,06,29,00,04,19.80
2021,06,29,00,05,19.80
2021,06,29,00,06,19.90
2021,06,29,00,07,19.90
2021,06,29,00,08,19.90
2021,06,29,00,09,19.90
2021,06,29,00,10,19.90
2021,06,29,00,11,19.90
2021,06,29,00,12,19.90
2021,06,29,00,13,19.90
2021,06,29,00,14,19.90
2021,06,29,00,15,20.00
2021,06,29,00,16,20.00
2021,06,29,00,17,20.00
2021,06,29,00,18,20.00
2021,06,29,00,19,20.00
2021,06,29,00,20,20.00
2021,06,29,00,21,20.00
2021,06,29,00,22,20.00
2021,06,29,00,23,20.00
2021,06,29,00,24,19.90
2021,06,29,00,25,19.90
2021,06,29,00,26,19.90
2021,06,29,00,27,19.90
2021,06,29,00,28,19.90
2021,06,29,00,29,19.90
2021,06,29,00,30,19.90
2021,06,29,00,31,19.90
2021,06,29,00,32,20.00
2021,06,29,00,33,20.00
2021,06,29,00,34,20.00
2021,06,29,00,35,19.90
2021,06,29,00,36,19.90
2021,06,29,00,37,19.90
2021,06,29,00,38,19.90
2021,06,29,00,39,19.90
2021,06,29,00,40,19.90
2021,06,29,00,41,19.90
2021,06,29,00,42,19.90
2021,06,29,00,43,19.90
2021,06,29,00,44,19.90
2021,06,29,00,45,20.00
2021,06,29,00,46,20.00
2021,06,29,00,47,20.00
2021,06,29,00,48,19.90
2021,06,29,00,49,19.90
2021,06,29,00,50,19.90
2021,06,29,00,51,19.90
2021,06,29,00,52,19.90
2021,06,29,00,53,19.90
2021,06,29,00,54,19.90
2021,06,29,00,55,19.90
2021,06,29,00,56,19.90
2021,06,29,00,57,19.90
2021,06,29,00,58,19.90
2021,06,29,00,59,19.90
2021,06,29,01,00,19.90
2021,06,29,01,01,19.90
2021,06,29,01,02,20.00
2021,06,29,01,03,20.00
2021,06,29,01,04,20.00
2021,06,29,01,05,20.00
2021,06,29,01,06,19.90
2021,06,29,01,07,19.90
2021,06,29,01,08,19.90
2021,06,29,01,09,19.90
2021,06,29,01,10,19.90
2021,06,29,01,11,19.90
2021,06,29,01,12,19.90
2021,06,29,01,13,19.90
2021,06,29,01,14,19.90
2021,06,29,01,15,19.90
2021,06,29,01,16,19.90
2021,06,29,01,17,19.90
2021,06,29,01,18,19.90
2021,06,29,01,19,19.90
2021,06,29,01,20,19.90
2021,06,29,01,21,19.90
2021,06,29,01,22,19.90
2021,06,29,01,23,20.00
2021,06,29,01,24,20.00
2021,06,29,01,25,20.00
2021,06,29,01,26,19.90
2021,06,29,01,27,19.90
2021,06,29,01,28,19.90
2021,06,29,01,29,19.90
2021,06,29,01,30,19.90
2021,06,29,01,31,19.90
2021,06,29,01,32,19.90
2021,06,29,01,33,19.90
2021,06,29,01,34,19.90
2021,06,29,01,35,19.80
2021,06,29,01,36,19.80
2021,06,29,01,37,19.80
2021,06,29,01,38,19.80
2021,06,29,01,39,19.80
2021,06,29,01,40,19.80
2021,06,29,01,41,19.70
2021,06,29,01,42,19.70
2021,06,29,01,43,19.70
2021,06,29,01,44,19.70
2021,06,29,01,45,19.70
2021,06,29,01,46,19.60
2021,06,29,01,47,19.60
2021,06,29,01,48,19.60
2021,06,29,01,49,19.60
2021,06,29,01,50,19.60
2021,06,29,01,51,19.60
2021,06,29,01,52,19.60
2021,06,29,01,53,19.60
2021,06,29,01,54,19.60
2021,06,29,01,55,19.60
2021,06,29,01,56,19.60
2021,06,29,01,57,19.60
2021,06,29,01,58,19.60
2021,06,29,01,59,19.60
2021,06,29,02,00,19.50
2021,06,29,02,01,19.50
2021,06,29,02,02,19.50
2021,06,29,02,03,19.40
2021,06,29,02,04,19.40
2021,06,29,02,05,19.40
2021,06,29,02,06,19.40
2021,06,29,02,07,19.40
2021,06,29,02,08,19.40
2021,06,29,02,09,19.30
2021,06,29,02,10,19.30
2021,06,29,02,11,19.30
2021,06,29,02,12,19.30
2021,06,29,02,13,19.30
2021,06,29,02,14,19.30
2021,06,29,02,15,19.30
2021,06,29,02,16,19.30
2021,06,29,02,17,19.20
2021,06,29,02,18,19.20
2021,06,29,02,19,19.20
2021,06,29,02,20,19.20
2021,06,29,02,21,19.10
2021,06,29,02,22,19.10
2021,06,29,02,23,19.10
2021,06,29,02,24,19.10
2021,06,29,02,25,19.10
2021,06,29,02,26,19.00
2021,06,29,02,27,19.00
2021,06,29,02,28,19.00
2021,06,29,02,29,18.90
2021,06,29,02,30,18.90
2021,06,29,02,31,18.90
2021,06,29,02,32,18.90
2021,06,29,02,33,18.80
2021,06,29,02,34,18.80
2021,06,29,02,35,18.80
2021,06,29,02,36,18.80
2021,06,29,02,37,18.80
2021,06,29,02,38,18.80
2021,06,29,02,39,18.80
2021,06,29,02,40,18.80
2021,06,29,02,41,18.80
2021,06,29,02,42,18.70
2021,06,29,02,43,18.70
2021,06,29,02,44,18.70
2021,06,29,02,45,18.70
2021,06,29,02,46,18.70
2021,06,29,02,47,18.70
2021,06,29,02,48,18.70
2021,06,29,02,49,18.70
2021,06,29,02,50,18.60
2021,06,29,02,51,18.60
2021,06,29,02,52,18.60
2021,06,29,02,53,18.60
2021,06,29,02,54,18.60
2021,06,29,02,55,18.60
2021,06,29,02,56,18.50
2021,06,29,02,57,18.50
2021,06,29,02,58,18.50
2021,06,29,02,59,18.50
2021,06,29,03,00,18.50
2021,06,29,03,01,18.60
2021,06,29,03,02,18.60
2021,06,29,03,03,18.50
2021,06,29,03,04,18.50
2021,06,29,03,05,18.50
2021,06,29,03,06,18.50
2021,06,29,03,07,18.50
2021,06,29,03,08,18.50
2021,06,29,03,09,18.50
2021,06,29,03,10,18.40
2021,06,29,03,11,18.40
2021,06,29,03,12,18.40
2021,06,29,03,13,18.40
2021,06,29,03,14,18.40
2021,06,29,03,15,18.40
2021,06,29,03,16,18.40
2021,06,29,03,17,18.40
2021,06,29,03,18,18.30
2021,06,29,03,19,18.30
2021,06,29,03,20,18.30
2021,06,29,03,21,18.30
2021,06,29,03,22,18.30
2021,06,29,03,23,18.30
2021,06,29,03,24,18.30
2021,06,29,03,25,18.30
2021,06,29,03,26,18.30
2021,06,29,03,27,18.20
2021,06,29,03,28,18.20
2021,06,29,03,29,18.20
2021,06,29,03,30,18.20
2021,06,29,03,31,18.20
2021,06,29,03,32,18.20
2021,06,29,03,33,18.20
2021,06,29,03,34,18.20
2021,06,29,03,35,18.20
2021,06,29,03,36,18.20
2021,06,29,03,37,18.20
2021,06,29,03,38,18.20
2021,06,29,03,39,18.20
2021,06,29,03,40,18.30
2021,06,29,03,41,18.30
2021,06,29,03,42,18.30
2021,06,29,03,43,18.30
2021,06,29,03,44,18.30
2021,06,29,03,45,18.30
2021,06,29,03,46,18.30
2021,06,29,03,47,18.30
2021,06,29,03,48,18.30
2021,06,29,03,49,18.30
2021,06,29,03,50,18.30
2021,06,29,03,51,18.20
2021,06,29,03,52,18.20
2021,06,29,03,53,18.20
2021,06,29,03,54,18.20
2021,06,29,03,55,18.20
2021,06,29,03,56,18.20
2021,06,29,03,57,18.20
2021,06,29,03,58,18.20
2021,06,29,03,59,18.20
2021,06,29,04,00,18.20
2021,06,29,04,01,18.20
2021,06,29,04,02,18.20
2021,06,29,04,03,18.20
2021,06,29,04,04,18.20
2021,06,29,04,05,18.20
2021,06,29,04,06,18.10
2021,06,29,04,07,18.10
2021,06,29,04,08,18.10
2021,06,29,04,09,18.10
2021,06,29,04,10,18.10
2021,06,29,04,11,18.00
2021,06,29,04,12,17.90
2021,06,29,04,13,17.80
2021,06,29,04,14,17.80
2021,06,29,04,15,17.70
2021,06,29,04,16,17.70
2021,06,29,04,17,17.60
2021,06,29,04,18,17.60
2021,06,29,04,19,17.60
2021,06,29,04,20,17.50
2021,06,29,04,21,17.50
2021,06,29,04,22,17.50
2021,06,29,04,23,17.40
2021,06,29,04,24,17.40
2021,06,29,04,25,17.40
2021,06,29,04,26,17.40
2021,06,29,04,27,17.40
2021,06,29,04,28,17.30
2021,06,29,04,29,17.30
2021,06,29,04,30,17.30
2021,06,29,04,31,17.30
2021,06,29,04,32,17.30
2021,06,29,04,33,17.30
2021,06,29,04,34,17.30
2021,06,29,04,35,17.30
2021,06,29,04,36,17.30
2021,06,29,04,37,17.30
2021,06,29,04,38,17.20
2021,06,29,04,39,17.20
2021,06,29,04,40,17.20
2021,06,29,04,41,17.20
2021,06,29,04,42,17.20
2021,06,29,04,43,17.20
2021,06,29,04,44,17.20
2021,06,29,04,45,17.20
2021,06,29,04,46,17.20
2021,06,29,04,47,17.10
2021,06,29,04,48,17.00
2021,06,29,04,49,17.00
2021,06,29,04,50,16.90
2021,06,29,04,51,16.80
2021,06,29,04,52,16.80
2021,06,29,04,53,16.80
2021,06,29,04,54,16.80
2021,06,29,04,55,16.70
2021,06,29,04,56,16.70
2021,06,29,04,57,16.70
2021,06,29,04,58,16.60
2021,06,29,04,59,16.60
2021,06,29,05,00,16.60
2021,06,29,05,01,16.60
2021,06,29,05,02,16.50
2021,06,29,05,03,16.50
2021,06,29,05,04,16.40
2021,06,29,05,05,16.40
2021,06,29,05,06,16.40
2021,06,29,05,07,16.30
2021,06,29,05,08,16.30
2021,06,29,05,09,16.30
2021,06,29,05,10,16.30
2021,06,29,05,11,16.20
2021,06,29,05,12,16.20
2021,06,29,05,13,16.20
2021,06,29,05,14,16.20
2021,06,29,05,15,16.20
2021,06,29,05,16,16.20
2021,06,29,05,17,16.20
2021,06,29,05,18,16.20
2021,06,29,05,19,16.20
2021,06,29,05,20,16.20
2021,06,29,05,21,16.20
2021,06,29,05,22,16.20
2021,06,29,05,23,16.10
2021,06,29,05,24,16.10
2021,06,29,05,25,16.10
2021,06,29,05,26,16.10
2021,06,29,05,27,16.10
2021,06,29,05,28,16.10
2021,06,29,05,29,16.00
2021,06,29,05,30,16.00
2021,06,29,05,31,16.00
2021,06,29,05,32,16.00
2021,06,29,05,33,16.00
2021,06,29,05,34,16.00
2021,06,29,05,35,16.00
2021,06,29,05,36,15.90
2021,06,29,05,37,15.90
2021,06,29,05,38,15.90
2021,06,29,05,39,15.90
2021,06,29,05,40,15.80
2021,06,29,05,41,15.80
2021,06,29,05,42,15.70
2021,06,29,05,43,15.70
2021,06,29,05,44,15.60
2021,06,29,05,45,15.60
2021,06,29,05,46,15.60
2021,06,29,05,47,15.60
2021,06,29,05,48,15.60
2021,06,29,05,49,15.50
2021,06,29,05,50,15.50
2021,06,29,05,51,15.50
2021,06,29,05,52,15.50
2021,06,29,05,53,15.40
2021,06,29,05,54,15.40
2021,06,29,05,55,15.40
2021,06,29,05,56,15.40
2021,06,29,05,57,15.40
2021,06,29,05,58,15.40
2021,06,29,05,59,15.40
2021,06,29,06,00,15.40
2021,06,29,06,01,15.40
2021,06,29,06,02,15.50
2021,06,29,06,03,15.50
2021,06,29,06,04,15.50
2021,06,29,06,05,15.50
2021,06,29,06,06,15.50
2021,06,29,06,07,15.50
2021,06,29,06,08,15.40
2021,06,29,06,09,15.40
2021,06,29,06,10,15.40
2021,06,29,06,11,15.30
2021,06,29,06,12,15.30
2021,06,29,06,13,15.30
2021,06,29,06,14,15.30
2021,06,29,06,15,15.30
2021,06,29,06,16,15.20
2021,06,29,06,17,15.30
2021,06,29,06,18,15.30
2021,06,29,06,19,15.30
2021,06,29,06,20,15.30
2021,06,29,06,21,15.30
2021,06,29,06,22,15.30
2021,06,29,06,23,15.30
2021,06,29,06,24,15.30
2021,06,29,06,25,15.30
2021,06,29,06,26,15.40
2021,06,29,06,27,15.40
2021,06,29,06,28,15.40
2021,06,29,06,29,15.40
2021,06,29,06,30,15.50
2021,06,29,06,31,15.50
2021,06,29,06,32,15.60
2021,06,29,06,33,15.60
2021,06,29,06,34,15.70
2021,06,29,06,35,15.70
2021,06,29,06,36,15.80
2021,06,29,06,37,15.90
2021,06,29,06,38,15.90
2021,06,29,06,39,15.90
2021,06,29,06,40,16.00
2021,06,29,06,41,16.10
2021,06,29,06,42,16.10
2021,06,29,06,43,16.20
2021,06,29,06,44,16.30
2021,06,29,06,45,16.30
2021,06,29,06,46,16.40
2021,06,29,06,47,16.40
2021,06,29,06,48,16.50
2021,06,29,06,49,16.60
2021,06,29,06,50,16.60
2021,06,29,06,51,16.70
2021,06,29,06,52,16.70
2021,06,29,06,53,16.80
2021,06,29,06,54,16.80
2021,06,29,06,55,16.80
2021,06,29,06,56,16.90
2021,06,29,06,57,16.90
2021,06,29,06,58,16.90
2021,06,29,06,59,17.00
2021,06,29,07,00,17.00
2021,06,29,07,01,16.90
2021,06,29,07,02,16.90
2021,06,29,07,03,16.90
2021,06,29,07,04,16.90
2021,06,29,07,05,16.80
2021,06,29,07,06,16.80
2021,06,29,07,07,16.80
2021,06,29,07,08,16.80
2021,06,29,07,09,16.80
2021,06,29,07,10,16.80
2021,06,29,07,11,16.80
2021,06,29,07,12,16.80
2021,06,29,07,13,16.80
2021,06,29,07,14,16.90
2021,06,29,07,15,16.90
2021,06,29,07,16,17.00
2021,06,29,07,17,17.00
2021,06,29,07,18,17.20
2021,06,29,07,19,17.30
2021,06,29,07,20,17.40
2021,06,29,07,21,17.40
2021,06,29,07,22,17.50
2021,06,29,07,23,17.50
2021,06,29,07,24,17.60
2021,06,29,07,25,17.50
2021,06,29,07,26,17.50
2021,06,29,07,27,17.40
2021,06,29,07,28,17.30
2021,06,29,07,29,17.30
2021,06,29,07,30,17.30
2021,06,29,07,31,17.30
2021,06,29,07,32,17.30
2021,06,29,07,33,17.30
2021,06,29,07,34,17.30
2021,06,29,07,35,17.30
2021,06,29,07,36,17.30
2021,06,29,07,37,17.30
2021,06,29,07,38,17.30
2021,06,29,07,39,17.30
2021,06,29,07,40,17.30
2021,06,29,07,41,17.30
2021,06,29,07,42,17.30
2021,06,29,07,43,17.30
2021,06,29,07,44,17.30
2021,06,29,07,45,17.40
2021,06,29,07,46,17.40
2021,06,29,07,47,17.40
2021,06,29,07,48,17.50
2021,06,29,07,49,17.60
2021,06,29,07,50,17.60
2021,06,29,07,51,17.60
2021,06,29,07,52,17.60
2021,06,29,07,53,17.60
2021,06,29,07,54,17.60
2021,06,29,07,55,17.60
2021,06,29,07,56,17.60
2021,06,29,07,57,17.60
2021,06,29,07,58,17.60
2021,06,29,07,59,17.60
2021,06,29,08,00,17.70
2021,06,29,08,01,17.70
2021,06,29,08,02,17.70
2021,06,29,08,03,17.70
2021,06,29,08,04,17.70
2021,06,29,08,05,17.70
2021,06,29,08,06,17.80
2021,06,29,08,07,17.80
2021,06,29,08,08,17.70
2021,06,29,08,09,17.70
2021,06,29,08,10,17.70
2021,06,29,08,11,17.70
2021,06,29,08,12,17.60
2021,06,29,08,13,17.60
2021,06,29,08,14,17.60
2021,06,29,08,15,17.50
2021,06,29,08,16,17.50
2021,06,29,08,17,17.50
2021,06,29,08,18,17.50
2021,06,29,08,19,17.50
2021,06,29,08,20,17.50
2021,06,29,08,21,17.40
2021,06,29,08,22,17.40
2021,06,29,08,23,17.40
2021,06,29,08,24,17.50
2021,06,29,08,25,17.50
2021,06,29,08,26,17.60
2021,06,29,08,27,17.60
2021,06,29,08,28,17.60
2021,06,29,08,29,17.70
2021,06,29,08,30,17.70
2021,06,29,08,31,17.80
2021,06,29,08,32,17.80
2021,06,29,08,33,17.90
2021,06,29,08,34,17.90
2021,06,29,08,35,18.00
2021,06,29,08,36,18.00
2021,06,29,08,37,18.10
2021,06,29,08,38,18.20
2021,06,29,08,39,18.20
2021,06,29,08,40,18.30
2021,06,29,08,41,18.40
2021,06,29,08,42,18.50
2021,06,29,08,43,18.50
2021,06,29,08,44,18.60
2021,06,29,08,45,18.70
2021,06,29,08,46,18.80
2021,06,29,08,47,18.80
2021,06,29,08,48,18.80
2021,06,29,08,49,18.80
2021,06,29,08,50,18.90
2021,06,29,08,51,18.90
2021,06,29,08,52,18.90
2021,06,29,08,53,18.90
2021,06,29,08,54,19.00
2021,06,29,08,55,19.10
2021,06,29,08,56,19.10
2021,06,29,08,57,19.20
2021,06,29,08,58,19.20
2021,06,29,08,59,19.30
2021,06,29,09,00,19.30
2021,06,29,09,01,19.40
2021,06,29,09,02,19.50
2021,06,29,09,03,19.50
2021,06,29,09,04,19.60
2021,06,29,09,05,19.60
2021,06,29,09,06,19.70
2021,06,29,09,07,19.70
2021,06,29,09,08,19.70
2021,06,29,09,09,19.70
2021,06,29,09,10,19.70
2021,06,29,09,11,19.80
2021,06,29,09,12,19.80
2021,06,29,09,13,19.80
2021,06,29,09,14,19.80
2021,06,29,09,15,19.80
2021,06,29,09,16,19.90
2021,06,29,09,17,20.00
2021,06,29,09,18,20.00
2021,06,29,09,19,20.10
2021,06,29,09,20,20.10
2021,06,29,09,21,20.20
2021,06,29,09,22,20.20
2021,06,29,09,23,20.30
2021,06,29,09,24,20.30
2021,06,29,09,25,20.40
2021,06,29,09,26,20.40
2021,06,29,09,27,20.50
2021,06,29,09,28,20.60
2021,06,29,09,29,20.70
2021,06,29,09,30,20.80
2021,06,29,09,31,20.80
2021,06,29,09,32,20.90
2021,06,29,09,33,20.90
2021,06,29,09,34,20.90
2021,06,29,09,35,20.90
2021,06,29,09,36,20.90
2021,06,29,09,37,20.90
2021,06,29,09,38,20.90
2021,06,29,09,39,20.90
2021,06,29,09,40,20.90
2021,06,29,09,41,20.90
2021,06,29,09,42,20.90
2021,06,29,09,43,21.00
2021,06,29,09,44,21.00
2021,06,29,09,45,21.00
2021,06,29,09,46,21.00
2021,06,29,09,47,21.00
2021,06,29,09,48,21.00
2021,06,29,09,49,20.90
2021,06,29,09,50,20.90
2021,06,29,09,51,20.90
2021,06,29,09,52,20.90
2021,06,29,09,53,20.80
2021,06,29,09,54,20.80
2021,06,29,09,55,20.80
2021,06,29,09,56,20.80
2021,06,29,09,57,20.90
2021,06,29,09,58,21.00
2021,06,29,09,59,21.00
2021,06,29,10,00,21.10
2021,06,29,10,01,21.10
2021,06,29,10,02,21.10
2021,06,29,10,03,21.10
2021,06,29,10,04,21.10
2021,06,29,10,05,21.20
2021,06,29,10,06,21.30
2021,06,29,10,07,21.30
2021,06,29,10,08,21.40
2021,06,29,10,09,21.60
2021,06,29,10,10,21.70
2021,06,29,10,11,21.70
2021,06,29,10,12,21.80
2021,06,29,10,13,21.80
2021,06,29,10,14,21.90
2021,06,29,10,15,21.90
2021,06,29,10,16,21.90
2021,06,29,10,17,22.00
2021,06,29,10,18,22.10
2021,06,29,10,19,22.10
2021,06,29,10,20,22.20
2021,06,29,10,21,22.30
2021,06,29,10,22,22.40
2021,06,29,10,23,22.60
2021,06,29,10,24,22.70
2021,06,29,10,25,22.80
2021,06,29,10,26,22.90
2021,06,29,10,27,22.90
2021,06,29,10,28,23.00
2021,06,29,10,29,23.10
2021,06,29,10,30,23.10
2021,06,29,10,31,23.20
2021,06,29,10,32,23.30
2021,06,29,10,33,23.40
2021,06,29,10,34,23.50
2021,06,29,10,35,23.50
2021,06,29,10,36,23.40
2021,06,29,10,37,23.40
2021,06,29,10,38,23.40
2021,06,29,10,39,23.40
2021,06,29,10,40,23.40
2021,06,29,10,41,23.50
2021,06,29,10,42,23.50
2021,06,29,10,43,23.60
2021,06,29,10,44,23.60
2021,06,29,10,45,23.60
2021,06,29,10,46,23.60
2021,06,29,10,47,23.60
2021,06,29,10,48,23.50
2021,06,29,10,49,23.50
2021,06,29,10,50,23.50
2021,06,29,10,51,23.40
2021,06,29,10,52,23.40
2021,06,29,10,53,23.50
2021,06,29,10,54,23.50
2021,06,29,10,55,23.60
2021,06,29,10,56,23.60
2021,06,29,10,57,23.70
2021,06,29,10,58,23.70
2021,06,29,10,59,23.80
2021,06,29,11,00,23.90
2021,06,29,11,01,23.90
2021,06,29,11,02,23.90
2021,06,29,11,03,24.00
2021,06,29,11,04,24.00
2021,06,29,11,05,24.00
2021,06,29,11,06,23.90
2021,06,29,11,07,23.80
2021,06,29,11,08,23.70
2021,06,29,11,09,23.70
2021,06,29,11,10,23.60
2021,06,29,11,11,23.50
2021,06,29,11,12,23.40
2021,06,29,11,13,23.30
2021,06,29,11,14,23.30
2021,06,29,11,15,23.30
2021,06,29,11,16,23.20
2021,06,29,11,17,23.20
2021,06,29,11,18,23.10
2021,06,29,11,19,23.00
2021,06,29,11,20,22.90
2021,06,29,11,21,22.90
2021,06,29,11,22,22.90
2021,06,29,11,23,22.90
2021,06,29,11,24,22.80
2021,06,29,11,25,22.80
2021,06,29,11,26,22.70
2021,06,29,11,27,22.60
2021,06,29,11,28,22.50
2021,06,29,11,29,22.40
2021,06,29,11,30,22.40
2021,06,29,11,31,22.40
2021,06,29,11,32,22.40
2021,06,29,11,33,22.40
2021,06,29,11,34,22.50
2021,06,29,11,35,22.60
2021,06,29,11,36,22.70
2021,06,29,11,37,22.70
2021,06,29,11,38,22.80
2021,06,29,11,39,22.90
2021,06,29,11,40,23.00
2021,06,29,11,41,23.10
2021,06,29,11,42,23.10
2021,06,29,11,43,23.10
2021,06,29,11,44,23.00
2021,06,29,11,45,22.90
2021,06,29,11,46,22.80
2021,06,29,11,47,22.70
2021,06,29,11,48,22.50
2021,06,29,11,49,22.20
2021,06,29,11,50,22.00
2021,06,29,11,51,21.80
2021,06,29,11,52,21.60
2021,06,29,11,53,21.50
2021,06,29,11,54,21.30
2021,06,29,11,55,21.20
2021,06,29,11,56,21.10
2021,06,29,11,57,21.00
2021,06,29,11,58,20.90
2021,06,29,11,59,20.80
2021,06,29,12,00,20.70
2021,06,29,12,01,20.70
2021,06,29,12,02,20.60
2021,06,29,12,03,20.60
2021,06,29,12,04,20.60
2021,06,29,12,05,20.50
2021,06,29,12,06,20.50
2021,06,29,12,07,20.40
2021,06,29,12,08,20.40
2021,06,29,12,09,20.40
2021,06,29,12,10,20.40
2021,06,29,12,11,20.40
2021,06,29,12,12,20.50
2021,06,29,12,13,20.50
2021,06,29,12,14,20.60
2021,06,29,12,15,20.60
2021,06,29,12,16,20.70
2021,06,29,12,17,20.70
2021,06,29,12,18,20.70
2021,06,29,12,19,20.70
2021,06,29,12,20,20.70
2021,06,29,12,21,20.70
2021,06,29,12,22,20.70
2021,06,29,12,23,20.70
2021,06,29,12,24,20.70
2021,06,29,12,25,20.70
2021,06,29,12,26,20.70
2021,06,29,12,27,20.70
2021,06,29,12,28,20.70
2021,06,29,12,29,20.60
2021,06,29,12,30,20.60
2021,06,29,12,31,20.60
2021,06,29,12,32,20.50
2021,06,29,12,33,20.50
2021,06,29,12,34,20.60
2021,06,29,12,35,20.60
2021,06,29,12,36,20.60
2021,06,29,12,37,20.60
2021,06,29,12,38,20.50
2021,06,29,12,39,20.50
2021,06,29,12,40,20.40
2021,06,29,12,41,20.40
2021,06,29,12,42,20.40
2021,06,29,12,43,20.30
2021,06,29,12,44,20.30
2021,06,29,12,45,20.30
2021,06,29,12,46,20.40
2021,06,29,12,47,20.40
2021,06,29,12,48,20.40
2021,06,29,12,49,20.50
2021,06,29,12,50,20.50
2021,06,29,12,51,20.50
2021,06,29,12,52,20.50
2021,06,29,12,53,20.60
2021,06,29,12,54,20.60
2021,06,29,12,55,20.70
2021,06,29,12,56,20.70
2021,06,29,12,57,20.80
2021,06,29,12,58,20.80
2021,06,29,12,59,20.80
2021,06,29,13,00,20.80
2021,06,29,13,01,20.80
2021,06,29,13,02,20.90
2021,06,29,13,03,20.90
2021,06,29,13,04,21.00
2021,06,29,13,05,21.10
2021,06,29,13,06,21.30
2021,06,29,13,07,21.40
2021,06,29,13,08,21.50
2021,06,29,13,09,21.60
2021,06,29,13,10,21.60
2021,06,29,13,11,21.60
2021,06,29,13,12,21.60
2021,06,29,13,13,21.60
2021,06,29,13,14,21.60
2021,06,29,13,15,21.60
2021,06,29,13,16,21.50
2021,06,29,13,17,21.40
2021,06,29,13,18,21.20
2021,06,29,13,19,21.10
2021,06,29,13,20,21.00
2021,06,29,13,21,20.90
2021,06,29,13,22,20.80
2021,06,29,13,23,20.80
2021,06,29,13,24,20.70
2021,06,29,13,25,20.60
2021,06,29,13,26,20.60
2021,06,29,13,27,20.50
2021,06,29,13,28,20.50
2021,06,29,13,29,20.40
2021,06,29,13,30,20.40
2021,06,29,13,31,20.40
2021,06,29,13,32,20.40
2021,06,29,13,33,20.40
2021,06,29,13,34,20.40
2021,06,29,13,35,20.50
2021,06,29,13,36,20.50
2021,06,29,13,37,20.60
2021,06,29,13,38,20.60
2021,06,29,13,39,20.70
2021,06,29,13,40,20.80
2021,06,29,13,41,20.90
2021,06,29,13,42,20.90
2021,06,29,13,43,21.00
2021,06,29,13,44,21.00
2021,06,29,13,45,21.10
2021,06,29,13,46,21.10
2021,06,29,13,47,21.10
2021,06,29,13,48,21.10
2021,06,29,13,49,21.10
2021,06,29,13,50,21.10
2021,06,29,13,51,21.20
2021,06,29,13,52,21.30
2021,06,29,13,53,21.40
2021,06,29,13,54,21.50
2021,06,29,13,55,21.60
2021,06,29,13,56,21.60
2021,06,29,13,57,21.70
2021,06,29,13,58,21.80
2021,06,29,13,59,21.90
2021,06,29,14,00,22.00
2021,06,29,14,01,22.10
2021,06,29,14,02,22.30
2021,06,29,14,03,22.40
2021,06,29,14,04,22.50
2021,06,29,14,05,22.70
2021,06,29,14,06,22.80
2021,06,29,14,07,22.90
2021,06,29,14,08,23.00
2021,06,29,14,09,23.10
2021,06,29,14,10,23.10
2021,06,29,14,11,23.30
2021,06,29,14,12,23.30
2021,06,29,14,13,23.40
2021,06,29,14,14,23.50
2021,06,29,14,15,23.50
2021,06,29,14,16,23.60
2021,06,29,14,17,23.70
2021,06,29,14,18,23.80
2021,06,29,14,19,23.90
2021,06,29,14,20,24.00
2021,06,29,14,21,24.10
2021,06,29,14,22,24.20
2021,06,29,14,23,24.30
2021,06,29,14,24,24.30
2021,06,29,14,25,24.40
2021,06,29,14,26,24.40
2021,06,29,14,27,24.50
2021,06,29,14,28,24.50
2021,06,29,14,29,24.50
2021,06,29,14,30,24.60
2021,06,29,14,31,24.60
2021,06,29,14,32,24.60
2021,06,29,14,33,24.60
2021,06,29,14,34,24.60
2021,06,29,14,35,24.60
2021,06,29,14,36,24.60
2021,06,29,14,37,24.60
2021,06,29,14,38,24.60
2021,06,29,14,39,24.60
2021,06,29,14,40,24.70
2021,06,29,14,41,24.80
2021,06,29,14,42,24.80
2021,06,29,14,43,24.90
2021,06,29,14,44,24.90
2021,06,29,14,45,25.00
2021,06,29,14,46,25.10
2021,06,29,14,47,25.20
2021,06,29,14,48,25.30
2021,06,29,14,49,25.40
2021,06,29,14,50,25.50
2021,06,29,14,51,25.60
2021,06,29,14,52,25.60
2021,06,29,14,53,25.70
2021,06,29,14,54,25.70
2021,06,29,14,55,25.80
2021,06,29,14,56,25.80
2021,06,29,14,57,25.90
2021,06,29,14,58,25.90
2021,06,29,14,59,26.00
2021,06,29,15,00,26.10
2021,06,29,15,01,26.20
2021,06,29,15,02,26.30
2021,06,29,15,03,26.50
2021,06,29,15,04,26.60
2021,06,29,15,05,26.70
2021,06,29,15,06,26.80
2021,06,29,15,07,26.90
2021,06,29,15,08,27.00
2021,06,29,15,09,27.00
2021,06,29,15,10,27.10
2021,06,29,15,11,27.10
2021,06,29,15,12,27.10
2021,06,29,15,13,27.10
2021,06,29,15,14,27.10
2021,06,29,15,15,27.10
2021,06,29,15,16,27.10
2021,06,29,15,17,27.00
2021,06,29,15,18,27.00
2021,06,29,15,19,27.00
2021,06,29,15,20,27.00
2021,06,29,15,21,26.90
2021,06,29,15,22,26.90
2021,06,29,15,23,26.90
2021,06,29,15,24,26.80
2021,06,29,15,25,26.70
2021,06,29,15,26,26.70
2021,06,29,15,27,26.70
2021,06,29,15,28,26.70
2021,06,29,15,29,26.80
2021,06,29,15,30,26.90
2021,06,29,15,31,26.90
2021,06,29,15,32,27.00
2021,06,29,15,33,27.10
2021,06,29,15,34,27.20
2021,06,29,15,35,27.20
2021,06,29,15,36,27.20
2021,06,29,15,37,27.20
2021,06,29,15,38,27.20
2021,06,29,15,39,27.20
2021,06,29,15,40,27.20
2021,06,29,15,41,27.20
2021,06,29,15,42,27.30
2021,06,29,15,43,27.30
2021,06,29,15,44,27.40
2021,06,29,15,45,27.50
2021,06,29,15,46,27.70
2021,06,29,15,47,27.80
2021,06,29,15,48,28.00
2021,06,29,15,49,28.00
2021,06,29,15,50,28.10
2021,06,29,15,51,28.20
2021,06,29,15,52,28.20
2021,06,29,15,53,28.20
2021,06,29,15,54,28.20
2021,06,29,15,55,28.30
2021,06,29,15,56,28.30
2021,06,29,15,57,28.40
2021,06,29,15,58,28.40
2021,06,29,15,59,28.40
2021,06,29,16,00,28.40
2021,06,29,16,01,28.40
2021,06,29,16,02,28.40
2021,06,29,16,03,28.40
2021,06,29,16,04,28.30
2021,06,29,16,05,28.30
2021,06,29,16,06,28.30
2021,06,29,16,07,28.40
2021,06,29,16,08,28.50
2021,06,29,16,09,28.60
2021,06,29,16,10,28.70
2021,06,29,16,11,28.80
2021,06,29,16,12,29.00
2021,06,29,16,13,29.10
2021,06,29,16,14,29.20
2021,06,29,16,15,29.30
2021,06,29,16,16,29.40
2021,06,29,16,17,29.40
2021,06,29,16,18,29.40
2021,06,29,16,19,29.40
2021,06,29,16,20,29.40
2021,06,29,16,21,29.30
2021,06,29,16,22,29.30
2021,06,29,16,23,29.30
2021,06,29,16,24,29.20
2021,06,29,16,25,29.20
2021,06,29,16,26,29.10
2021,06,29,16,27,29.00
2021,06,29,16,28,28.90
2021,06,29,16,29,28.70
2021,06,29,16,30,28.60
2021,06,29,16,31,28.60
2021,06,29,16,32,28.60
2021,06,29,16,33,28.60
2021,06,29,16,34,28.50
2021,06,29,16,35,28.50
2021,06,29,16,36,28.40
2021,06,29,16,37,28.40
2021,06,29,16,38,28.30
2021,06,29,16,39,28.30
2021,06,29,16,40,28.20
2021,06,29,16,41,28.20
2021,06,29,16,42,28.20
2021,06,29,16,43,28.20
2021,06,29,16,44,28.20
2021,06,29,16,45,28.20
2021,06,29,16,46,28.20
2021,06,29,16,47,28.10
2021,06,29,16,48,28.20
2021,06,29,16,49,28.20
2021,06,29,16,50,28.20
2021,06,29,16,51,28.10
2021,06,29,16,52,28.00
2021,06,29,16,53,28.00
2021,06,29,16,54,28.00
2021,06,29,16,55,28.00
2021,06,29,16,56,28.00
2021,06,29,16,57,28.00
2021,06,29,16,58,27.90
2021,06,29,16,59,27.90
2021,06,29,17,00,27.90
2021,06,29,17,01,27.90
2021,06,29,17,02,27.90
2021,06,29,17,03,27.80
2021,06,29,17,04,27.90
2021,06,29,17,05,27.90
2021,06,29,17,06,28.00
2021,06,29,17,07,28.00
2021,06,29,17,08,28.00
2021,06,29,17,09,28.00
2021,06,29,17,10,27.90
2021,06,29,17,11,27.80
2021,06,29,17,12,27.60
2021,06,29,17,13,27.60
2021,06,29,17,14,27.50
2021,06,29,17,15,27.40
2021,06,29,17,16,27.40
2021,06,29,17,17,27.20
2021,06,29,17,18,27.00
2021,06,29,17,19,26.70